Home > Weather > Solothurn > Past weeks

Flag for Switzerland Past Weather in Solothurn, Solothurn, Switzerland — Yesterday and Last 2 Weeks

Now
65 °F

Mild.


Feels Like: 65 °F
Forecast: 62 / 76 °F
Wind: 1 mph from Northeast

Location: Grenchen

Current Time: Jul 24, 2016 at 3:04:05 AM

Latest Report: Jul 24, 2016 at 2:00 AM


Visibility: N/A

Pressure: 30.12 "Hg

Humidity: 96%

Dew Point: 64 °F

Location of SolothurnLocation

Past Weather in Solothurn — Graph

°F

Solothurn Temperature Yesterday

Maximum temperature yesterday: 78 °F (at 5:00 PM)
Minimum temperature yesterday: 63 °F (at 4:00 AM)
Average temperature yesterday: 69 °F

High & Low Weather Summary for the Past Weeks

 TemperatureHumidityPressure
High91 °F (Jul 20, 6:00 PM)100% (Jul 13, 3:00 AM)30.38 "Hg (Jul 13, 3:00 AM)
Low44 °F (Jul 16, 6:00 AM)31% (Jul 20, 5:00 PM)29.83 "Hg (Jul 10, 6:00 PM)
Average67 °F75%30.09 "Hg
* Reported Jul 9 1:00 AM — Jul 24 1:00 AM, Solothurn, Weather by CustomWeather, © 2016

Note: Actual official high and low records may vary slightly from our data, if they occured in-between our weather recording intervals... More about our weather records

Advertising

Solothurn Weather History for the Previous 24 Hours

Scroll right to see more
 ConditionsComfort  
Time TempWeatherWind HumidityBarometerVisibility
1:00 AM
Sun, Jul 24
65 °FMild.2 mph97%30.13 "HgN/A
12:00 AM66 °FMild.2 mph96%30.12 "HgN/A
11:00 PM
Sat, Jul 23
67 °FMild.2 mph92%30.11 "HgN/A
10:00 PM68 °FMild.2 mph91%30.09 "HgN/A
9:00 PM69 °FMild.2 mph88%30.06 "HgN/A
8:00 PM71 °FMild.2 mph77%30.04 "HgN/A
7:00 PM71 °FMild.3 mph79%30.04 "HgN/A
6:00 PM74 °FMild.8 mph63%30.02 "HgN/A
5:00 PM78 °FWarm.6 mph51%30.01 "HgN/A
4:00 PM76 °FMild.3 mph56%30.02 "HgN/A
3:00 PM74 °FMild.2 mph62%30.02 "HgN/A
2:00 PM74 °FMild.3 mph69%30.03 "HgN/A
1:00 PM72 °FMild.5 mph77%30.04 "HgN/A
12:00 PM71 °FMild.3 mph80%30.05 "HgN/A
11:00 AM70 °FMild.3 mph84%30.05 "HgN/A
10:00 AM68 °FMild.2 mph89%30.04 "HgN/A
9:00 AM67 °FMild.2 mph92%30.04 "HgN/A
8:00 AM65 °FMild.1 mph98%30.04 "HgN/A
7:00 AM65 °FMild.2 mph97%30.03 "HgN/A
6:00 AM64 °FMild.1 mph99%30.03 "HgN/A
5:00 AM63 °FMild.2 mph99%30.03 "HgN/A
4:00 AM63 °FMild.2 mph100%30.04 "HgN/A
3:00 AM64 °FMild.2 mph98%30.03 "HgN/A
Weather by CustomWeather, © 2016

See weather overviewHow to use our weather pages